[[{"header":{"parameterUnit":"m.s-1","parameterCategory":1,"la1":30.2991,"la2":30.254,"lo1":-89.0895,"lo2":-89.0444,"dy":0.0017,"dx":0.0017,"nx":28,"ny":28,"refTime":"2024-06-23T21:00:00:Z","depth":0,"parameterNumber":2,"parameterNumberName":"U-component_of_WINDS"},"data":[0,0,0,0,0,0,0,0,0,0,0,0,0,0,0,0,0,0,0,0,0,0,0,0,0,0,0,0,0,0,0,0,0,0,0,0,0,0,0,0,0,0,0,0,0,0,0,0,0,0,0,0,0,0,0,0,0,0,4.0746,4.0747,0,4.0837,4.0838,4.0839,4.0783,4.0781,4.0778,4.0775,4.0868,4.0873,4.0878,0,0,0,0,0,0,0,0,0,0,0,0,0,4.0522,4.0526,4.0746,4.0748,4.0749,4.0837,4.0838,4.084,4.0784,4.078,4.0777,4.0774,4.0867,4.0873,4.0879,0,0,0,0,0,0,0,0,0,0,0,0,0,4.0617,4.0528,4.0746,4.0731,4.0731,4.0837,4.0839,4.084,4.0784,4.078,4.0776,4.0773,4.0865,4.0872,4.0879,4.1005,0,0,4.0902,4.0905,0,0,0,0,0,0,0,0,4.0611,4.0625,4.0732,4.0733,4.0732,4.0795,4.0793,4.0895,4.0785,4.0764,4.0775,4.0771,4.0847,4.0856,4.0882,4.1009,4.1013,4.0903,4.0907,4.091,4.0913,0,0,0,0,0,0,0,4.0605,4.0621,4.0782,4.0734,4.0734,4.0719,4.0728,4.0812,4.0827,4.0766,4.0762,4.0773,4.0846,4.0875,4.0883,4.1015,4.0903,4.0909,4.0914,4.0917,4.1247,4.1251,0,0,0,0,0,0,4.06,4.0616,4.0779,4.0785,4.0661,4.0727,4.0737,4.0779,4.0826,4.0829,4.0777,4.077,4.0864,4.0875,4.0886,4.1034,4.091,4.0917,4.0922,4.1243,4.1248,4.1252,0,0,0,0,0,0,4.0595,4.0615,4.0776,4.0699,4.0719,4.0735,4.0782,4.0783,4.0811,4.0834,4.0836,4.0803,4.0861,4.0876,4.0975,4.1036,4.0921,4.0927,4.1237,4.1244,4.125,4.1332,0,0,0,0,0,0,4.0589,4.0614,4.0662,4.0701,4.0723,4.0864,4.0786,4.0787,4.0824,4.0816,4.0859,4.0863,4.0859,4.0964,4.0983,4.1045,4.0933,4.1232,4.124,4.1248,4.1324,4.134,4.1354,0,0,0,0,0,4.0581,4.0682,4.0665,4.0685,4.0784,4.0868,4.088,4.0874,4.0829,4.0877,4.0892,4.0861,4.1027,4.0975,4.0995,4.106,4.1228,4.1238,4.1247,4.1317,4.1337,4.1354,0,0,0,0,0,0,4.0651,4.0687,4.0668,4.0785,4.0824,4.0858,4.0919,4.0896,4.0948,4.0939,4.093,4.094,4.1043,4.1062,4.1003,4.1183,4.112,4.1135,4.1166,4.1186,4.1201,4.1193,4.0939,0,0,0,0,0,4.068,4.0745,4.0773,4.0873,4.0893,4.0903,4.0939,4.0931,4.097,4.0986,4.1008,4.1048,4.1108,4.1148,4.1206,4.1327,4.1334,4.1381,4.1397,4.1409,4.1421,4.1483,4.1503,4.1284,4.1284,4.1284,0,0,4.074,4.0768,4.081,4.0888,4.0917,4.0983,4.0917,4.0991,4.104,4.0998,4.1092,4.1109,4.1152,4.1262,4.1312,4.1281,4.1483,4.1421,4.1431,4.1436,4.1495,4.1516,4.1534,4.1291,4.129,4.1289,0,0,4.0883,4.0912,4.0997,4.1027,4.1071,4.1077,4.1097,4.1135,4.1144,4.1239,4.1208,4.1266,4.1371,4.1402,4.1432,4.1585,4.1557,4.1604,4.1683,4.1744,4.1761,4.1776,4.1828,4.1847,4.1616,4.1616,4.1616,0,4.0952,4.1052,4.1044,4.1119,4.1153,4.1118,4.1203,4.1233,4.1294,4.1317,4.1283,4.1412,4.1439,4.1554,4.1591,4.1617,4.1638,4.1598,4.176,4.1775,4.1789,4.1838,4.1858,4.1621,4.1621,4.162,4.162,0,4.1133,4.1203,4.1266,4.1324,4.1366,4.1446,4.1449,4.1492,4.148,4.1489,4.1584,4.1615,4.1676,4.1703,4.1693,4.1816,4.1795,4.1761,4.1697,4.1815,4.186,4.188,4.1628,4.1627,4.1625,4.1624,0,0,4.1323,4.1375,4.1398,4.1423,4.1468,4.1521,4.1599,4.1658,4.1694,4.1737,4.18,4.1889,4.1856,4.189,4.1883,4.1937,4.2052,4.1895,4.1895,4.192,4.2186,4.221,4.2232,4.2035,4.2039,4.2041,4.2181,0,4.1466,4.1602,4.1596,4.1722,4.1784,4.1751,4.1818,4.1852,4.1862,4.1916,4.1927,4.1989,4.1942,4.1962,4.2014,4.2027,4.2105,4.2017,4.2092,4.2094,4.2079,4.2256,4.2283,4.2413,4.2199,4.2203,4.2205,0,4.1652,4.17,4.1832,4.1865,4.1891,4.1952,4.2004,4.2057,4.2095,4.2098,4.2135,4.2118,4.2195,4.2131,4.2236,4.2176,4.2206,4.2217,4.2222,4.2227,4.2155,4.2263,4.2455,4.2473,4.2234,4.2231,4.2229,0,4.1773,4.1871,4.1962,4.1984,4.2027,4.207,4.2089,4.2123,4.2158,4.2205,4.2227,4.2282,4.2311,4.2354,4.2352,4.2306,4.2457,4.2394,4.246,4.246,4.2491,4.2489,4.2687,4.2516,4.2515,4.2515,4.2514,0,4.1933,4.2014,4.2016,4.2072,4.2161,4.2153,4.2242,4.2257,4.2287,4.2343,4.2319,4.2373,4.2368,4.2422,4.2421,4.2506,4.252,4.2524,4.2522,4.2524,4.2523,4.2542,4.2532,4.252,4.2519,4.2518,4.2517,0,4.2082,4.2088,4.2184,4.2215,4.2225,4.2289,4.2316,4.2368,4.2375,4.2447,4.2463,4.2475,4.2537,4.2539,4.2611,4.261,4.2713,4.2703,4.27,4.2697,4.2761,4.2754,4.2977,4.3004,4.2817,4.2819,4.2821,0,4.2183,4.2244,4.2282,4.2318,4.234,4.2399,4.2434,4.2429,4.2466,4.2512,4.2558,4.2618,4.2665,4.2765,4.2779,4.2833,4.2822,4.2897,4.283,4.2829,4.2819,4.2814,4.2819,4.2909,4.2911,4.2912,4.2914,0,4.2359,4.2358,4.241,4.2462,4.2505,4.2547,4.2585,4.2616,4.2614,4.2658,4.272,4.2757,4.2829,4.2887,4.2939,4.2958,4.2935,4.2935,4.2952,4.2954,4.2948,4.2949,4.2732,4.2929,4.2928,4.2927,4.2926,4.2925,4.2485,4.2536,4.257,4.2628,4.2656,4.2692,4.2741,4.2754,4.2806,4.2864,4.2858,4.2927,4.2961,4.3028,4.3051,4.3104,4.3078,4.3105,4.3111,4.3117,4.3122,4.2942,4.3114,4.3114,4.3113,4.3113,4.3113,0,4.2657,4.2677,4.273,4.2783,4.2829,4.2804,4.2844,4.2883,4.2944,4.2977,4.3024,4.3094,4.315,4.3168,4.3222,4.3261,4.3251,4.3275,4.3271,4.3275,4.3143,4.3121,4.3281,4.3281,4.3281,4.3281,4.3281,4.3281,4.2751,4.2836,4.2839,4.2937,4.2956,4.3023,4.3048,4.308,4.3106,4.3186,4.3232,4.3243,4.327,4.3325,4.3375,4.3379,4.3398,4.3426,4.3425,4.3301,4.3284,4.3268,4.3247,4.3431,4.3431,4.3551,4.3552,4.3553]},{"header":{"parameterUnit":"m.s-1","parameterCategory":1,"la1":30.2991,"la2":30.254,"lo1":-89.0895,"lo2":-89.0444,"dy":0.0017,"dx":0.0017,"nx":28,"ny":28,"refTime":"2024-06-23T21:00:00:Z","depth":0,"parameterNumber":3,"parameterNumberName":"V-component_of_WINDS"},"data":[0,0,0,0,0,0,0,0,0,0,0,0,0,0,0,0,0,0,0,0,0,0,0,0,0,0,0,0,0,0,0,0,0,0,0,0,0,0,0,0,0,0,0,0,0,0,0,0,0,0,0,0,0,0,0,0,0,0,1.9139,1.914,0,1.9211,1.9212,1.9213,1.9212,1.9211,1.921,1.9209,1.9284,1.9287,1.929,0,0,0,0,0,0,0,0,0,0,0,0,0,1.9002,1.9005,1.9139,1.914,1.9141,1.9211,1.9212,1.9213,1.9212,1.9211,1.921,1.9208,1.9283,1.9287,1.929,0,0,0,0,0,0,0,0,0,0,0,0,0,1.9067,1.9006,1.9139,1.9149,1.9151,1.9211,1.9212,1.9213,1.9212,1.9211,1.9209,1.9208,1.9282,1.9286,1.9291,1.9346,0,0,1.9304,1.9306,0,0,0,0,0,0,0,0,1.9063,1.9072,1.9147,1.9148,1.915,1.9201,1.9191,1.9258,1.9213,1.9189,1.9209,1.9207,1.9258,1.9264,1.9281,1.935,1.9353,1.9304,1.9307,1.9309,1.931,0,0,0,0,0,0,0,1.9059,1.9069,1.9168,1.9148,1.915,1.915,1.9158,1.9204,1.9231,1.9191,1.9191,1.9199,1.9258,1.9276,1.9282,1.9354,1.9304,1.9308,1.9311,1.9312,1.9471,1.9472,0,0,0,0,0,0,1.9052,1.9065,1.9165,1.917,1.9102,1.9154,1.9162,1.9186,1.923,1.9235,1.92,1.9199,1.927,1.9277,1.9285,1.9352,1.9309,1.9313,1.9315,1.9469,1.9471,1.9473,0,0,0,0,0,0,1.9049,1.9061,1.9163,1.9117,1.913,1.9157,1.9185,1.9188,1.9206,1.9237,1.9242,1.9214,1.9269,1.9279,1.933,1.9355,1.9315,1.9319,1.9467,1.947,1.9472,1.9487,0,0,0,0,0,0,1.9045,1.906,1.9081,1.9118,1.9133,1.9207,1.9186,1.9191,1.9214,1.9212,1.9251,1.9256,1.9269,1.9324,1.9335,1.936,1.9322,1.9465,1.9468,1.9471,1.9485,1.949,1.9494,0,0,0,0,0,1.904,1.9083,1.9082,1.9095,1.916,1.9208,1.9217,1.9229,1.9216,1.9237,1.9257,1.9255,1.935,1.9329,1.9341,1.9368,1.9464,1.9467,1.9471,1.9483,1.9489,1.9494,0,0,0,0,0,0,1.905,1.9089,1.9088,1.9144,1.9173,1.9208,1.9236,1.9236,1.927,1.9267,1.9282,1.9291,1.9342,1.936,1.9336,1.9424,1.9405,1.9411,1.941,1.9416,1.9421,1.9416,1.9326,0,0,0,0,0,1.9059,1.9094,1.9126,1.9173,1.9187,1.9209,1.923,1.9237,1.9268,1.928,1.9304,1.9334,1.937,1.9394,1.943,1.9487,1.9495,1.9511,1.9516,1.952,1.9525,1.9556,1.9563,1.9484,1.9484,1.9484,0,0,1.9077,1.9103,1.9124,1.9175,1.9198,1.9235,1.9219,1.9259,1.9286,1.9287,1.9336,1.9354,1.9389,1.9443,1.9468,1.946,1.9549,1.9524,1.9527,1.9531,1.956,1.9568,1.9574,1.9487,1.9486,1.9486,0,0,1.9129,1.9152,1.9193,1.9216,1.9251,1.9265,1.9274,1.9309,1.9321,1.9371,1.9371,1.9404,1.9467,1.9491,1.9512,1.9571,1.957,1.9582,1.9607,1.9637,1.9643,1.9649,1.9669,1.9677,1.9587,1.9587,1.9587,0,1.9148,1.9203,1.9214,1.9254,1.9276,1.9277,1.9318,1.934,1.9384,1.94,1.9389,1.9467,1.9491,1.955,1.9564,1.9581,1.9592,1.9578,1.9641,1.9647,1.9652,1.9672,1.968,1.9588,1.9588,1.9588,1.9588,0,1.9224,1.9262,1.9291,1.9332,1.9358,1.9398,1.9415,1.9439,1.9444,1.9459,1.9509,1.9537,1.9577,1.9592,1.9597,1.9652,1.9645,1.9638,1.962,1.9661,1.968,1.9687,1.959,1.9589,1.9589,1.9589,0,0,1.9286,1.9332,1.9343,1.9361,1.9398,1.9428,1.9467,1.9506,1.9526,1.9556,1.959,1.9642,1.9635,1.9658,1.9666,1.9692,1.9736,1.9682,1.9683,1.9691,1.9798,1.9803,1.9812,1.9736,1.9737,1.9738,1.9795,0,1.9342,1.9412,1.9423,1.9484,1.9519,1.9519,1.9554,1.958,1.9595,1.9626,1.9643,1.9679,1.9667,1.9681,1.9707,1.9726,1.9758,1.9722,1.9767,1.9769,1.9759,1.9822,1.9828,1.9879,1.9802,1.9803,1.9804,0,1.9417,1.9448,1.9513,1.9544,1.9559,1.959,1.9625,1.9655,1.9685,1.9694,1.9718,1.9723,1.9764,1.9743,1.9799,1.9774,1.9793,1.9805,1.9808,1.9813,1.9789,1.9828,1.9896,1.9904,1.9816,1.9815,1.9814,0,1.9455,1.9513,1.9559,1.9575,1.9612,1.9634,1.9651,1.9679,1.9701,1.9732,1.9746,1.9782,1.9802,1.9829,1.9843,1.9826,1.9898,1.9879,1.9906,1.9906,1.9922,1.9921,1.9994,1.9934,1.9934,1.9934,1.9934,0,1.9516,1.9556,1.9576,1.9605,1.9649,1.966,1.9703,1.972,1.9744,1.9776,1.9778,1.9808,1.9824,1.9856,1.9867,1.9911,1.992,1.9929,1.9931,1.9928,1.9927,1.9941,1.9938,1.9936,1.9935,1.9935,1.9935,0,1.9567,1.9582,1.9632,1.9663,1.9671,1.9702,1.9729,1.9756,1.977,1.9809,1.9819,1.9841,1.9879,1.9895,1.9941,1.9948,1.9999,1.9999,1.9989,1.999,2.0017,2.0014,2.0101,2.0113,2.0046,2.0046,2.0047,0,1.9605,1.9635,1.9669,1.9689,1.9706,1.974,1.9762,1.9774,1.9797,1.9832,1.9855,1.9892,1.9923,1.9982,2.0003,2.0038,2.0039,2.0067,2.0044,2.004,2.0039,2.0037,2.0039,2.0071,2.0072,2.0072,2.0073,0,1.9671,1.9676,1.9708,1.9741,1.9767,1.9795,1.9821,1.9838,1.9855,1.988,1.9918,1.9941,1.9987,2.0024,2.006,2.0078,2.0078,2.008,2.0088,2.0086,2.0078,2.0082,2.0,2.0078,2.0077,2.0077,2.0077,2.0076,1.9716,1.9743,1.977,1.9804,1.9825,1.985,1.9877,1.9893,1.9924,1.9963,1.9968,2.0008,2.0036,2.0084,2.0103,2.0134,2.0127,2.0139,2.0142,2.0145,2.0147,2.0073,2.0141,2.0141,2.0141,2.0141,2.0141,0,1.9782,1.9799,1.9831,1.9867,1.9894,1.9891,1.992,1.9943,1.9978,2.0003,2.0032,2.0075,2.0111,2.0133,2.0168,2.0189,2.019,2.0198,2.0197,2.0201,2.0151,2.014,2.0197,2.0197,2.0197,2.0197,2.0197,2.0197,1.9819,1.9863,1.9872,1.9926,1.9943,1.9982,1.9998,2.0021,2.0041,2.0089,2.0118,2.0131,2.0156,2.0193,2.0225,2.023,2.0243,2.0252,2.0257,2.021,2.0204,2.0199,2.0189,2.0254,2.0254,2.0304,2.0304,2.0305]}]]